Overview Statistics Trail Chart Weather Telemetry Raw packets
 

This is the latest recevied weather packets stored in our database for station/object S57PNX-8. If no packets are shown the sender has not sent any weather packets the latest 10 day(s).

<< 35 36 37 38 39 40 41 >>
Time Temp. Humidity Pressure Rain* Wind** Luminosity Snow
1787921804 26.67° C 62% 1023.9 hPa - - - -
1787920905 26.67° C 62% 1024 hPa - - - -
1787920006 26.67° C 65% 1024 hPa - - - -
1787919426 26.67° C 67% 1024.1 hPa - - - -
1787919392 26.67° C 67% 1024.1 hPa - - - -
1787918492 26.11° C 64% 1024.1 hPa - - - -
1787917590 26.11° C 64% 1024.1 hPa - - - -
1787916692 25.56° C 70% 1023.9 hPa - - - -
1787915793 25.56° C 71% 1023.8 hPa - - - -
1787914893 25° C 74% 1023.8 hPa - - - -
1787913995 25° C 75% 1024 hPa - - - -
1787913097 24.44° C 71% 1024.2 hPa - - - -
1787912198 24.44° C 70% 1024.3 hPa - - - -
1787911299 23.89° C 68% 1024.5 hPa - - - -
1787910447 23.89° C 66% 1024.5 hPa - - - -
1787910400 23.89° C 66% 1024.5 hPa - - - -
1787909501 23.33° C 66% 1024.7 hPa - - - -
1787908602 23.33° C 70% 1024.9 hPa - - - -
1787907703 22.78° C 71% 1025.1 hPa - - - -
1787906803 22.78° C 69% 1025.1 hPa - - - -
1787905904 22.22° C 64% 1025 hPa - - - -
1787905005 21.67° C 64% 1024.8 hPa - - - -
1787904106 21.67° C 65% 1024.5 hPa - - - -
1787903253 21.67° C 65% 1024.6 hPa - - - -
1787903207 21.67° C 65% 1024.6 hPa - - - -

* Rain since midnight (hover to see other rain measurements)
** Current wind speed in m/s (hover to see current wind gust speed)